Tracking 29777 objects as of 4-Oct-2024
HD Live streaming from Space Station
objects crossing your sky now

STARLINK-3938

Track STARLINK-3938 now!
10-day predictions
STARLINK-3938 is classified as:


NORAD ID: 52566
Int'l Code: 2022-051AK
Perigee: 545.8 km
Apogee: 547.9 km
Inclination: 53.2 °
Period: 95.4 minutes
Semi major axis: 6917 km
RCS: Unknown
Launch date: May 13, 2022
Source: United States (US)
Launch site: AIR FORCE WESTERN TEST RANGE (AFWTR)
Your satellite tracking list
Your tracking list is empty




NASA's NSSDC Master Catalog

Two Line Element Set (TLE):
1 52566U 22051AK  24277.83170378  .00001835  00000-0  13334-3 0  9997
2 52566  53.2176 316.8357 0001538  87.9250 272.1918 15.08843691132596
Source of the keplerian elements: AFSPC